User: anonymous   Login
Location: SAPM � Hemmingford
(45.0500°N, 73.5833°W)
Time: 18:39:04
(UTC-04:00)
Language:

Cosmos 1674 Rocket - Orbit

View from above orbital plane
View from above orbital plane
View from above satellite
View from above satellite

Ground track
Ground track

The orbit data is extracted from the following two-line orbital elements,

1 15945U 85069B   16243.05104811  .00000139  00000-0  13796-4 0  9991
2 15945  82.5264  45.6549 0020321 158.8621 201.3438 14.83875191677856
Epoch (UTC): 30 August 2016 01:13:30
Eccentricity: 0.0020321
inclination: 82.5264°
perigee height: 603 km
apogee height: 631 km
right ascension of ascending node: 45.6549°
argument of perigee: 158.8621°
revolutions per day: 14.83875191
mean anomaly at epoch: 201.3438°
orbit number at epoch: 67785

The dashed part of the orbit path shows where the satellite is in the earth's shadow,  

DLR